Location: Poprad
(49.0500°N, 20.3000°E)
Time: 01:28:19
(UTC+02:00)

Oscar 11 - Pass Details

Date: 25 April 2024
Orbit: 603 x 614 km, 97.7° (Epoch: 18 May)

Event Time Altitude Azimuth Distance (km) Brightness Sun altitude
Rises 03:40:57 0° 24° (NNE) 2,893 11.8 -15.6°
Reaches altitude 10° 03:43:32 10° 39° (NE) 1,980 11.0 -15.3°
Maximum altitude 03:46:59 23° 93° (E) 1,314 9.3 -14.9°
Drops below altitude 10° 03:50:23 10° 146° (SE) 1,960 9.6 -14.5°
Sets 03:52:55 0° 161° (SSE) 2,856 10.3 -14.1°
